Location: Ravensburg
(48.5621°N, 13.4088°E)
Time: 22:36:34
(UTC+02:00)

ISS - Visible Passes

Search period start: 26 July 2017 00:00
Search period end: 05 August 2017 00:00
Orbit: 400 x 408 km, 51.6° (Epoch: 27 July)

Date Brightness Start Highest point End Pass type
(mag) Time Alt. Az. Time Alt. Az. Time Alt. Az.
26 Jul -2.9 00:52:28 10° WNW 00:55:38 48° N 00:56:42 33° ENE visible
26 Jul -1.2 02:29:00 10° WNW 02:29:15 12° WNW 02:29:15 12° WNW visible
26 Jul -3.9 22:23:17 10° WSW 22:26:33 86° NNW 22:29:49 10° ENE visible
27 Jul -2.8 00:00:04 10° WNW 00:03:14 46° N 00:05:20 18° ENE visible
27 Jul -1.8 01:36:41 10° WNW 01:37:55 21° WNW 01:37:55 21° WNW visible
27 Jul -3.9 21:31:01 10° SW 21:34:15 65° SSE 21:37:28 10° ENE visible
27 Jul -2.9 23:07:39 10° W 23:10:49 49° N 23:14:00 10° ENE visible
28 Jul -2.9 00:44:22 10° WNW 00:46:58 47° NW 00:46:58 47° NW visible
28 Jul -3.2 22:15:12 10° W 22:18:25 58° NNW 22:21:39 10° ENE visible
28 Jul -3.0 23:52:00 10° WNW 23:55:11 49° N 23:56:07 36° ENE visible
29 Jul -1.0 01:28:31 10° WNW 01:28:45 12° WNW 01:28:45 12° WNW visible
29 Jul -3.6 21:22:47 10° WSW 21:26:02 77° NNW 21:29:18 10° ENE visible
29 Jul -2.8 22:59:35 10° WNW 23:02:45 46° N 23:05:20 14° ENE visible
30 Jul -2.2 00:36:09 10° WNW 00:37:58 30° WNW 00:37:58 30° WNW visible
30 Jul -2.9 22:07:08 10° W 22:10:18 48° N 22:13:28 10° ENE visible
30 Jul -3.6 23:43:48 10° WNW 23:47:03 64° NNE 23:47:12 62° NE visible
31 Jul -3.1 22:51:25 10° WNW 22:54:37 52° N 22:56:28 22° ENE visible
01 Aug -1.6 00:27:57 10° WNW 00:29:05 20° W 00:29:05 20° W visible
01 Aug -2.9 21:58:59 10° WNW 22:02:09 47° N 22:05:19 10° E visible
01 Aug -3.6 23:35:32 10° WNW 23:38:23 65° W 23:38:23 65° W visible
02 Aug -3.7 22:43:08 10° WNW 22:46:24 70° NNE 22:47:40 33° E visible
03 Aug -1.1 00:19:49 10° W 00:20:18 13° W 00:20:18 13° W visible
03 Aug -3.2 21:50:43 10° WNW 21:53:56 55° N 21:56:59 11° E visible
03 Aug -2.8 23:27:15 10° WNW 23:29:36 37° WSW 23:29:36 37° WSW visible
04 Aug -3.9 22:34:47 10° WNW 22:38:02 74° SSW 22:38:56 44° SE visible
